* Astronomy

Members Login
Username 
 
Password 
    Remember Me  
Post Info TOPIC: CZ-4 Debri re-entry


L

Posts: 131433
Date:
CZ-4 Debri re-entry
Permalink  
 


Debris from a CZ-4 rocket body that was launched on the 14th October, 1999, from the Taiyaun Space Centre, China, for the CBERS 1 and SACI 1 satellite missions, re-entered the Earths atmosphere on the 1st September, 2012 @ 03:23 GMT ± 1 hours.

CZ-4 DEB
1 26186U 99057BY  12245.03964916  .33150101  31292-5  51349-2 0  5025
2 26186 098.3825 250.7617 0014674 193.3425 166.9734 16.33714634673603

Inclination: 98.38°
Revolution Number:  67362
Predicted Location:   46.5°S, 31.4°E



__________________
Page 1 of 1  sorted by
 
Quick Reply

Please log in to post quick replies.



Create your own FREE Forum
Report Abuse
Powered by ActiveBoard